CAPE
0 0 0 0 0 0 0 0 0 0 0 0 0 0 0 0 0 0 0 0 0 0 0 0 0 0 0 0 0 0 0 0 0 0 0 0 0 0 0 0 0 0 0 0
0 0 0 0 0 0 0 0 0 0 0 0 0 0 0 0 0 0 0 0 0 0 0 0 0 0 0 0 0 0 0 0 0 0 0 0 0 0 0 0 0 0 0 0
0 0 0 0 0 0 0 0 0 0 0 0 0 0 0 0 0 0 0 0 0 0 0 0 0 0 0 0 0 0 0 0 0 0 0 0 0 0 0 0 0 0 0 0
0 0 0 0 0 0 0 0 0 0 0 0 0 0 0 0 0 0 0 0 0 0 0 0 0 0 0 0 0 0 0 0 0 0 0 0 0 0 0 0 0 0 0 0
0 0 0 0 0 0 0 0 0 0 0 0 0 0 0 0 0 0 0 0 0 0 0 0 0 0 0 0 0 0 0 0 0 0 0 0 0 0 0 0 0 0 0 0
0 0 0 0 0 0 0 0 0 0 0 0 0 0 0 0 0 0 0 0 0 0 0 0 0 0 0 0 0 0 0 0 0 0 0 0 0 0 0 0 0 0 0 0
0 0 0 0 0 0 0 0 0 0 0 0 0 0 0 0 0 0 0 0 0 0 0 0 0 0 0 0 0 0 0 0 0 0 0 0 0 0 0 0 0 0 0 0
0 0 0 0 0 0 0 0 0 0 0 0 0 0 0 0 0 0 0 0 0 0 0 0 0 0 0 0 0 0 0 0 0 0 0 0 0 0 0 0 0 0 0 0
0 0 0 0 0 0 0 0 0 0 0 0 0 0 0 0 0 0 0 0 0 0 0 0 0 0 0 0 0 0 0 0 0 0 0 0 0 0 0 0 0 0 0 0
0 0 0 0 0 0 0 0 0 0 0 0 0 0 0 0 0 0 0 0 0 0 0 0 0 0 0 0 0 0 0 0 0 0 0 0 0 0 0 0 0 0 0 0
0 0 0 0 0 0 0 0 0 0 0 0 0 0 0 0 0 0 0 0 0 0 0 0 0 0 0 0 0 0 0 0 0 0 0 0 0 0 0 0 0 0 0 0
0 0 0 0 0 0 0 0 0 0 0 0 0 0 0 0 0 0 0 0 0 0 0 0 0 0 0 0 0 0 0 0 0 0 0 0 0 0 0 0 0 0 0 0
0 0 0 0 0 0 0 0 0 0 0 0 0 0 0 0 0 0 0 0 0 0 0 0 0 0 0 0 0 0 0 0 0 0 0 0 0 0 0 0 0 0 0 0
0 0 0 0 0 0 0 0 0 0 0 0 0 0 0 0 0 0 0 0 0 0 0 0 0 0 0 0 0 0 0 0 0 0 0 0 0 0 0 0 0 0 0 0
0 0 0 0 0 0 0 0 0 0 0 0 0 0 0 0 0 0 0 0 0 0 0 0 0 0 0 0 0 0 0 0 0 0 0 0 0 0 0 0 0 0 0 0
0 3 10 6 0 0 0 0 0 0 0 0 0 0 0 0 0 0 0 0 0 0 0 0 0 0 0 0 0 0 0 0 0 0 0 0 0 0 0 0 0 0 0 0
1 0 0 5 0 0 0 0 0 0 0 0 0 0 0 0 0 0 0 0 0 0 0 0 0 0 0 0 0 0 0 0 0 0 0 0 0 0 0 0 0 0 0 0
2 0 0 3 0 0 0 0 0 0 0 0 0 0 0 0 0 0 0 0 0 0 0 0 0 0 0 0 0 0 0 0 0 0 0 0 0 0 0 0 0 0 0 0
0 3 0 23 13 16 30 0 0 0 0 0 0 0 0 0 0 0 0 0 0 0 0 0 0 0 0 0 0 0 0 0 0 0 0 0 0 0 0 0 0 0 0 0
8 36 33 13 15 1 0 0 0 0 6 0 0 1 2 0 0 0 1 0 0 0 0 0 0 0 0 0 0 0 0 0 0 0 0 0 0 0 0 0 0 0 0 0
0 2 32 41 46 12 1 0 0 27 0 0 1 3 1 1 2 2 2 0 0 0 0 0 0 0 0 0 0 0 0 0 0 0 0 0 0 0 0 0 0 0 0 0
0 1 0 0 4 2 1 0 0 0 0 1 1 1 0 3 1 0 0 0 0 0 0 0 0 0 0 0 0 0 0 0 0 0 0 0 0 0 0 0 0 0 0 0
0 0 0 0 0 0 0 0 0 23 0 0 0 0 0 0 2 3 1 0 0 0 0 0 0 0 0 0 0 0 0 0 0 0 0 0 0 0 0 0 0 0 0 0
0 0 0 0 0 0 0 0 0 0 0 0 0 0 0 0 0 0 0 0 0 0 0 0 0 0 0 0 0 0 0 0 0 0 0 0 0 0 0 0 0 0 0 0
0 0 0 0 0 0 0 0 0 0 0 0 0 0 0 0 0 0 0 0 0 1 3 0 0 0 0 0 0 0 0 0 0 0 0 0 0 0 0 0 0 0 0 0
0 0 0 0 0 0 0 0 0 0 0 0 0 0 0 0 0 0 0 0 0 0 0 0 0 0 0 0 0 0 0 0 0 0 0 0 0 0 0 0 0 0 0 0
CIN
-0 -0 -0 -0 -0 -0 -0 -0 -0 -0 -0 -0 -0 -0 -0 -0 -0 -0 -0 -0 -0 -0 -0 -0 -0 -0 -0 -0 -0 -0 -0 -0 -0 -0 -0 -0 -0 -0 -0 -0 -0 -0 -0 -0
-0 -0 -0 -0 -0 -0 -0 -0 -0 -0 -0 -0 -0 -0 -0 -0 -0 -0 -0 -0 -0 -0 -0 -0 -0 -0 -0 -0 -0 -0 -0 -0 -0 -0 -0 -0 -0 -0 -0 -0 -0 -0 -0 -0
-0 -0 -0 -0 -0 -0 -0 -0 -0 -0 -0 -0 -0 -0 -0 -0 -0 -0 -0 -0 -0 -0 -0 -0 -0 -0 -0 -0 -0 -0 -0 -0 -0 -0 -0 -0 -0 -0 -0 -0 -0 -0 -0 -0
-0 -0 -0 -0 -0 -0 -0 -0 -0 -0 -0 -0 -0 -0 -0 -0 -0 -0 -0 -0 -0 -0 -0 -0 -0 -0 -0 -0 -0 -0 -0 -0 -0 -0 -0 -0 -0 -0 -0 -0 -0 -0 -0 -0
-0 -0 -0 -0 -0 -0 -0 -0 -0 -0 -0 -0 -0 -0 -0 -0 -0 -0 -0 -0 -0 -0 -0 -0 -0 -0 -0 -0 -0 -0 -0 -0 -0 -0 -0 -0 -0 -0 -0 -0 -0 -0 -0 -0
-0 -0 -0 -0 -0 -0 -0 -0 -0 -0 -0 -0 -0 -0 -0 -0 -0 -0 -0 -0 -0 -0 -0 -0 -0 -0 -0 -0 -0 -0 -0 -0 -0 -0 -0 -0 -0 -0 -0 -0 -0 -0 -0 -0
-0 -0 -0 -0 -0 -0 -0 -0 -0 -0 -0 -0 -0 -0 -0 -0 -0 -0 -0 -0 -0 -0 -0 -0 -0 -0 -0 -0 -0 -0 -0 -0 -0 -0 -0 -0 -0 -0 -0 -0 -0 -0 -0 -0
-0 -0 -0 -0 -0 -0 -0 -0 -0 -0 -0 -0 -0 -0 -0 -0 -0 -0 -0 -0 -0 -0 -0 -0 -0 -0 -0 -0 -0 -0 -0 -0 -0 -0 -0 -0 -0 -0 -0 -0 -0 -0 -0 -0
-0 -0 -0 -0 -0 -0 -0 -0 -0 -0 -0 -0 -0 -0 -0 -0 -0 -0 -0 -0 -0 -0 -0 -0 -0 -0 -0 -0 -0 -0 -0 -0 -0 -0 -0 -0 -0 -0 -0 -0 -0 -0 -0 -0
-0 -0 -0 -0 -0 -0 -0 -0 -0 -0 -0 -0 -0 -0 -0 -0 -0 -0 -0 -0 -0 -0 -0 -0 -0 -0 -0 -0 -0 -0 -0 -0 -0 -0 -0 -0 -0 -0 -0 -0 -0 -0 -0 -0
-0 -0 -0 -0 -0 -0 -0 -0 -0 -0 -0 -0 -0 -0 -0 -0 -0 -0 -0 -0 -0 -0 -0 -0 -0 -0 -0 -0 -0 -0 -0 -0 -0 -0 -0 -0 -0 -0 -0 -0 -0 -0 -0 -0
-0 -0 -0 -0 -0 -0 -0 -0 -0 -0 -0 -0 -0 -0 -0 -0 -0 -0 -0 -0 -0 -0 -0 -0 -0 -0 -0 -0 -0 -0 -0 -0 -0 -0 -0 -0 -0 -0 -0 -0 -0 -0 -0 -0
-0 -0 -0 -0 -0 -0 -0 -0 -0 -0 -0 -0 -0 -0 -0 -0 -0 -0 -0 -0 -0 -0 -0 -0 -0 -0 -0 -0 -0 -0 -0 -0 -0 -0 -0 -0 -0 -0 -0 -0 -0 -0 -0 -0
-0 -0 -0 -0 -0 -0 -0 -0 -0 -0 -0 -0 -0 -0 -0 -0 -0 -0 -0 -0 -0 -0 -0 -0 -0 -0 -0 -0 -0 -0 -0 -0 -0 -0 -0 -0 -0 -0 -0 -0 -0 -0 -0 -0
-0 -0 -0 -0 -0 -0 -0 -0 -0 -0 -0 -0 -0 -0 -0 -0 -0 -0 -0 -0 -0 -0 -0 -0 -0 -0 -0 -0 -0 -0 -0 -0 -0 -0 -0 -0 -0 -0 -0 -0 -0 -0 -0 -0
-0 -5 -5 -20 -0 -0 -0 -0 -0 -0 -0 -0 -0 -0 -0 -0 -0 -0 -0 -0 -0 -0 -0 -0 -0 -0 -0 -0 -0 -0 -0 -0 -0 -0 -0 -0 -0 -0 -0 -0 -0 -0 -0 -0
-17 -0 -0 -5 -4 -0 -0 -0 -0 -0 -0 -0 -0 -0 -0 -0 -0 -0 -0 -0 -0 -0 -0 -0 -0 -0 -0 -0 -0 -0 -0 -0 -0 -0 -0 -0 -0 -0 -0 -0 -0 -0 -0 -0
-0 -0 -0 -20 -0 -5 -0 -0 -0 -0 -0 -0 -0 -0 -0 -0 -0 -0 -0 -0 -0 -0 -0 -0 -0 -0 -0 -0 -0 -0 -0 -0 -0 -0 -0 -0 -0 -0 -0 -0 -0 -0 -0 -0
-18 -41 -1 -4 -12 -14 -6 -0 -0 -0 -0 -0 -0 -0 -0 -0 -0 -0 -0 -0 -0 -0 -0 -0 -0 -0 -0 -0 -0 -0 -0 -0 -0 -0 -0 -0 -0 -0 -0 -0 -0 -0 -0 -0
-47 -13 -6 -6 -1 -3 -0 -0 -0 -0 -40 -0 -0 -0 -0 -0 -0 -0 -0 -0 -0 -0 -0 -0 -0 -0 -0 -0 -0 -0 -0 -0 -0 -0 -0 -0 -0 -0 -0 -0 -0 -0 -0 -0
-0 -5 -4 -31 -7 -56 -0 -0 -0 -6 -0 -0 -0 -0 -0 -0 -0 -0 -0 -0 -0 -0 -0 -0 -0 -0 -0 -0 -0 -0 -0 -0 -0 -0 -0 -0 -0 -0 -0 -0 -0 -0 -0 -0
-5 -2 -0 -0 -0 -1 -0 -0 -0 -0 -0 -0 -0 -0 -1 -1 -0 -0 -0 -0 -2 -0 -0 -0 -0 -0 -0 -0 -0 -0 -0 -0 -0 -0 -0 -0 -0 -0 -0 -0 -0 -0 -0 -0
-0 -5 -0 -0 -0 -0 -0 -0 -0 -7 -0 -0 -0 -0 -0 -0 -0 -0 -4 -1 -0 -0 -0 -0 -0 -0 -0 -0 -0 -0 -0 -0 -0 -0 -0 -0 -0 -0 -0 -0 -0 -0 -0 -0
-0 -0 -0 -0 -0 -0 -0 -0 -0 -0 -0 -0 -0 -0 -0 -0 -0 -0 -0 -0 -0 -0 -0 -0 -0 -0 -0 -0 -0 -0 -0 -0 -0 -0 -0 -0 -0 -0 -0 -0 -0 -0 -0 -0
-0 -0 -0 -0 -0 -0 -0 -0 -0 -0 -0 -0 -0 -0 -0 -0 -0 -0 -0 -0 -0 -0 -1 -0 -0 -0 -0 -0 -0 -0 -0 -0 -0 -0 -0 -0 -0 -0 -0 -0 -0 -0 -0 -0
-0 -0 -0 -0 -0 -0 -0 -0 -0 -0 -0 -0 -0 -0 -0 -0 -0 -0 -0 -0 -0 -0 -0 -0 -0 -3 -0 -0 -0 -0 -0 -0 -0 -0 -0 -0 -0 -0 -0 -0 -0 -0 -0 -0
Wind_Speed
21 23 22 22 24 29 32 34 35 29 34 32 29 28 28 25 22 22 23 23 23 23 20 21 17 15 15 14 13 13 13 14 13 13 12 11 11 10 9 9 9 9 10 11
26 29 23 29 25 26 30 34 36 42 39 34 36 33 29 24 22 22 22 22 25 26 25 20 16 12 13 12 12 11 12 13 13 13 12 11 10 10 10 9 10 10 10 10
31 32 24 25 29 32 31 33 36 38 43 43 44 38 30 25 22 20 21 22 22 20 19 21 14 9 9 11 12 12 12 13 13 12 11 10 9 10 10 12 11 11 10 10
34 29 29 30 31 27 36 34 39 40 41 44 32 63 27 25 26 23 23 22 23 21 21 17 13 10 10 11 11 12 12 13 13 12 12 12 13 12 12 12 12 12 12 12
31 32 28 30 28 25 33 31 32 37 39 44 36 42 43 27 28 25 18 15 16 23 18 16 11 10 9 9 10 10 11 12 13 13 13 13 13 13 13 14 14 14 13 13
32 29 30 31 28 25 27 31 33 34 37 42 33 35 55 29 27 27 25 20 20 22 20 13 12 8 8 8 9 10 11 12 13 13 14 15 14 13 14 14 14 15 15 15
36 33 31 27 32 30 28 32 42 42 39 43 33 35 35 33 29 32 30 25 22 24 18 13 9 8 8 8 9 11 12 13 13 14 15 16 16 15 15 14 15 17 17 18
41 50 30 28 28 33 31 28 34 44 50 56 38 42 48 33 32 36 29 25 27 24 15 9 5 6 6 7 9 11 14 15 15 16 17 17 18 18 18 17 16 17 19 19
46 52 35 32 32 28 32 34 34 40 41 49 52 49 46 40 39 35 32 31 28 20 12 8 8 8 8 10 12 13 15 19 19 20 20 19 19 19 19 18 17 16 16 17
41 54 42 38 33 34 32 30 37 35 46 53 53 54 52 52 47 42 36 27 22 15 14 12 10 9 11 12 16 19 21 22 22 22 22 22 20 20 20 19 18 17 17 15
37 40 51 36 39 39 38 40 38 41 40 53 59 60 35 36 37 39 33 26 22 21 17 12 10 13 17 22 22 21 21 23 24 24 25 25 23 22 20 21 21 19 17 15
38 38 45 45 41 35 34 40 40 48 52 46 53 59 51 48 41 39 20 17 18 19 21 20 21 25 27 24 22 23 24 23 24 27 27 26 25 24 23 22 21 19 18 16
37 36 48 47 47 38 42 41 40 42 43 52 59 58 53 57 57 40 43 43 35 39 40 38 35 33 30 27 27 26 24 26 26 25 26 26 25 24 24 23 20 19 18 17
42 46 49 57 51 45 50 45 41 41 50 55 55 56 48 51 48 49 51 52 51 51 49 44 37 33 31 30 29 29 28 27 26 24 24 25 25 24 23 21 20 19 18 18
43 62 58 60 58 60 59 56 59 62 61 63 64 60 51 46 52 52 54 53 51 50 43 37 38 39 37 36 35 32 32 29 27 25 25 25 24 22 21 20 19 19 18 19
48 68 58 66 62 64 71 72 71 71 66 67 64 65 54 50 56 65 67 68 59 56 51 42 38 39 41 38 37 34 33 31 26 27 25 22 20 20 20 19 19 18 18 18
51 53 57 72 61 61 72 66 68 68 64 62 69 65 62 67 63 63 70 76 62 56 52 48 44 46 43 45 41 38 34 30 28 26 23 21 19 20 20 19 18 18 18 17
62 59 54 69 57 73 59 46 50 61 67 66 70 67 63 60 60 58 59 58 63 66 59 52 49 48 49 45 41 36 31 29 26 24 22 21 19 19 19 18 17 17 16 16
48 55 59 60 63 63 61 53 55 61 69 62 70 67 61 58 56 54 50 51 51 54 57 54 49 45 43 40 35 29 26 23 22 22 20 19 19 19 19 19 19 16 16 15
51 53 64 70 78 84 73 57 42 44 64 47 47 47 46 43 48 42 45 48 49 44 43 45 46 39 36 32 27 24 23 22 23 22 21 21 20 19 20 20 20 17 15 15
63 57 59 57 58 49 39 47 44 55 52 45 38 38 39 40 42 47 49 53 52 47 45 44 41 37 34 32 24 25 25 27 24 22 21 21 21 21 20 19 20 19 16 15
57 60 65 67 72 74 49 42 44 49 44 41 44 47 50 50 51 51 52 53 51 46 45 45 45 41 36 32 30 31 30 28 25 23 23 23 22 21 22 21 20 19 19 18
54 43 48 48 54 57 48 52 52 40 43 49 54 55 56 58 57 56 54 52 51 50 49 47 44 44 41 34 32 37 33 28 27 26 27 24 22 24 24 24 23 22 22 20
48 50 55 58 56 60 64 54 43 49 54 54 54 58 58 57 57 58 57 57 57 54 53 47 50 53 53 44 42 38 35 30 30 31 30 26 21 22 24 25 25 25 26 23
45 48 49 57 56 54 51 49 51 51 51 54 54 53 55 58 59 57 60 59 59 55 54 53 55 52 51 51 46 39 36 36 36 34 31 30 27 25 24 26 27 27 26 25
41 45 49 58 54 53 58 55 52 54 54 53 55 58 57 57 60 59 61 62 61 57 55 57 59 58 54 53 49 43 37 38 38 38 36 36 34 33 29 28 28 27 26 25
Wind_Direction
298 290 281 273 282 293 299 301 300 295 309 307 294 283 278 275 286 284 283 285 288 290 287 297 285 265 260 252 246 234 229 228 226 228 231 243 242 252 263 268 279 287 294 300
294 276 275 297 292 289 292 294 296 302 306 303 302 284 286 291 273 268 288 277 269 305 307 307 299 279 250 241 237 226 222 218 222 228 232 252 248 266 268 275 279 281 284 290
274 288 287 285 289 291 282 289 294 294 305 302 305 288 281 285 275 270 268 279 280 300 303 308 301 271 244 237 230 217 218 215 218 223 230 265 264 286 277 272 270 271 273 282
288 290 286 289 289 289 283 296 299 302 305 303 308 275 296 307 302 300 301 275 307 310 307 305 296 280 247 244 235 220 217 212 218 222 227 236 241 256 270 272 273 274 273 280
289 299 293 286 276 286 287 302 301 303 303 304 300 304 307 308 306 307 299 280 295 313 308 302 285 267 256 250 232 219 216 219 225 224 229 237 250 264 290 290 281 277 276 279
288 297 296 296 299 293 301 302 302 302 302 289 298 302 299 307 312 318 316 310 303 313 312 299 294 279 264 259 240 233 222 221 225 230 236 237 247 263 282 287 282 276 275 278
299 288 291 291 292 296 294 297 297 296 294 289 304 295 279 309 309 310 309 306 297 307 311 301 276 255 260 244 225 227 228 236 239 236 241 241 253 260 269 278 281 276 275 277
296 293 290 289 278 290 288 282 285 293 293 294 300 292 300 310 308 305 298 295 300 301 306 300 266 223 236 241 240 237 249 245 244 245 250 254 261 264 273 276 280 275 273 275
291 288 295 289 289 282 291 283 285 289 291 293 293 294 300 306 311 309 301 300 298 296 292 284 292 256 252 259 245 250 254 247 254 251 253 258 265 263 267 273 278 275 275 275
290 289 289 292 288 288 282 295 290 286 287 286 289 294 297 306 310 310 304 301 306 299 295 293 286 271 272 276 275 274 266 259 261 256 253 258 261 263 271 272 271 274 277 273
302 289 287 290 284 283 286 283 284 288 283 283 286 287 300 308 317 314 313 313 307 302 301 297 292 289 288 291 285 273 268 266 264 262 259 260 260 262 265 268 271 271 272 268
299 300 291 288 293 288 286 285 286 282 286 286 287 283 290 295 306 314 322 338 324 314 309 303 299 296 296 290 284 277 275 266 265 269 265 262 265 265 265 268 271 269 270 269
291 287 288 288 286 287 286 284 287 286 287 284 286 288 291 291 289 287 295 300 298 299 300 298 297 293 290 287 286 281 274 272 275 271 267 265 264 261 262 267 267 265 269 269
282 278 278 278 281 287 287 288 289 288 283 285 285 288 292 294 289 287 289 290 291 292 292 291 289 289 289 289 286 281 278 277 276 270 266 264 264 263 261 264 263 261 263 265
274 277 278 276 277 280 281 280 280 280 281 282 285 284 285 286 293 293 291 292 294 296 296 292 288 290 291 288 285 282 280 277 273 270 267 265 268 267 264 263 262 263 263 265
279 279 278 277 277 276 276 278 279 278 277 280 281 281 280 283 287 285 284 286 294 293 294 293 290 290 291 288 284 281 279 276 270 271 268 265 262 261 259 261 260 260 261 264
286 283 279 279 279 278 276 278 279 278 279 282 281 282 285 284 284 283 286 282 294 294 292 291 290 290 290 289 286 281 277 275 270 269 268 265 259 258 258 259 256 256 257 262
285 284 285 284 284 275 283 282 280 280 283 285 285 286 286 284 286 288 291 291 292 292 294 291 288 288 289 289 285 281 277 272 267 267 267 264 257 259 260 256 254 257 256 254
279 282 282 282 282 285 286 289 287 286 285 291 290 290 290 291 290 288 294 302 300 298 294 292 291 291 291 288 286 280 275 270 266 264 262 258 256 258 256 255 256 259 258 255
285 279 277 279 278 279 287 297 300 293 285 311 310 308 307 303 291 295 304 305 307 308 311 306 300 297 295 293 289 282 274 269 267 265 264 263 260 260 257 255 258 258 258 261
283 283 281 280 280 285 304 308 300 285 295 307 311 317 318 311 306 305 305 302 307 309 305 305 304 299 297 297 294 286 281 277 278 275 270 266 263 263 262 260 259 256 254 254
284 283 280 280 278 281 308 304 298 298 297 304 304 302 304 304 302 305 306 307 307 304 303 299 296 301 301 298 292 289 287 287 282 277 274 273 270 266 265 261 261 255 251 254
286 288 288 286 282 291 296 296 304 300 303 300 301 302 303 300 301 304 304 303 301 299 295 299 303 298 297 298 294 291 292 287 282 277 277 274 272 269 263 257 255 254 252 255
291 291 287 289 288 291 291 296 300 301 301 302 303 301 301 300 298 297 299 295 294 294 293 301 297 291 290 292 290 290 289 285 279 278 278 276 268 266 264 262 257 254 251 257
295 296 293 290 293 293 293 295 299 301 303 303 302 301 298 294 296 298 293 292 293 293 297 294 290 288 293 290 287 288 285 280 275 274 274 273 273 266 261 259 255 255 257 257
297 295 294 293 297 296 294 297 299 299 301 300 298 297 294 297 298 295 291 290 292 296 297 291 288 290 290 288 286 286 283 278 277 275 274 273 270 264 260 259 260 259 258 262